Santiago, Chile

1:00 PM CLST en Diciembre 19, 2018 (GMT -0300)
Arturo Merino Benitez International

Tiempo Historia de SCEL - Enero, 2018

Change the Weather History Date:

Domingo, Enero 14, 2018

  Actual Average Record
Temperature  
Temperatura media 70 ° F -  
Temperatura máxima 81 ° F 82 ° F 91 ° F (2001)
Temperatura mínima 59 ° F 52 ° F 51 ° F (1997)
Cooling Degree Days 5    
Growing Degree Days 20 (Base 50)    
Moisture  
Punto de rocío 56 ° F    
Average Humidity 66    
Maximum Humidity 88    
Minimum Humidity 36    
Precipitación  
Precipitación 0.00 pul - - ()
Presión al nivel del mar  
Presión al nivel del mar 29.92 pul    
Viento  
Velocidad del viento 8 mph ()    
Velocidad máxima del viento 17 mph    
Max Gust Speed -    
Visibilidad 6.0 Millas    
Eventos      
Averages and records for this station are not official NWS values.
T = Trace of Precipitation, MM = Missing Value Source: Averaged Metar Reports

Daily Weather History Graph

Daily Weather History Graph

Search for Another Location

Airport or City:

Astronomía

Jan. 14, 2018 Salida Puesta
Hora real 6:48 AM CLST 8:55 PM CLST
Crepúsculo civil 6:20 AM CLST 9:24 PM CLST
Crepúsculo náutico 5:45 AM CLST 9:58 PM CLST
Crepúsculo astronómico 5:08 AM CLST 10:35 PM CLST
Luna 4:50 AM CLST (1/14) 7:05 PM CLST (1/14)
Horas de luz 15h 03m
Horas de luz
14h 07m
Creciente menguante, 5% of the Moon is Illuminated
Ene 14
Creciente menguante
Ene 16
Nueva
Ene 24
Cuarto creciente
Ene 31
Luna llena
Feb 7
Cuarto menguante

Hourly Weather History & Observations

Hora (CLST) Temp. Punto de rocío Humedad Presión Visibilidad Wind Dir Velocidad del viento Velocidad de ráfagas Precip Eventos Condiciones
12:00 AM 66.2 ° F 55.4 ° F 68% 29.95 pul - Sur 6.9 mph - N/A   Despejado
1:00 AM 66.2 ° F 55.4 ° F 68% 29.95 pul - SSE 5.8 mph - N/A   Despejado
2:00 AM 64.4 ° F 55.4 ° F 73% 29.92 pul - Sur 9.2 mph - N/A   Despejado
3:00 AM 63 ° F 55 ° F 69% 29.91 pul 6 mi SSE 6.9 mph - -   Parcialmente nublado
3:00 AM 62.6 ° F 55.4 ° F 77% 29.92 pul - SSE 6.9 mph - N/A   Despejado
4:00 AM 62.6 ° F 55.4 ° F 77% 29.92 pul - SSE 5.8 mph - N/A   Despejado
5:00 AM 60.8 ° F 55.4 ° F 82% 29.89 pul - SSE 5.8 mph - N/A   Despejado
6:00 AM 60.8 ° F 55.4 ° F 82% 29.89 pul - SSE 4.6 mph - N/A   Despejado
7:00 AM 59.0 ° F 55.4 ° F 88% 29.92 pul - Sur 4.6 mph - N/A   Despejado
8:00 AM 60.8 ° F 55.4 ° F 82% 29.92 pul - Sur 3.5 mph - N/A   Despejado
9:00 AM 64 ° F 56 ° F 67% 29.91 pul 5 mi Sur 4.6 mph - -   Bruma
9:00 AM 64.4 ° F 55.4 ° F 73% 29.92 pul 5.0 mi Sur 4.6 mph - N/A   Desconocido
10:00 AM 66.2 ° F 55.4 ° F 68% 29.95 pul - SSE 6.9 mph - N/A   Despejado
11:00 AM 69.8 ° F 55.4 ° F 60% 29.92 pul - SSE 9.2 mph - N/A   Despejado
12:00 PM 73.4 ° F 57.2 ° F 57% 29.92 pul - Sur 12.7 mph - N/A   Despejado
1:00 PM 77.0 ° F 57.2 ° F 50% 29.92 pul - Sur 15.0 mph - N/A   Despejado
2:00 PM 75.2 ° F 55.4 ° F 50% 29.92 pul 6.2 mi Sur 17.3 mph - N/A   Muy nublado
3:00 PM 79 ° F 57 ° F 36% 29.85 pul 6 mi Sur 15.0 mph - -   Parcialmente nublado
3:00 PM 78.8 ° F 57.2 ° F 47% 29.92 pul 6.2 mi Sur 15.0 mph - N/A   Muy nublado
4:00 PM 78.8 ° F 57.2 ° F 47% 29.92 pul - SSO 15.0 mph - N/A   Despejado
5:00 PM 77.0 ° F 57.2 ° F 50% 29.89 pul 6.2 mi SO 15.0 mph - N/A   Nubes dispersas
6:00 PM 73.4 ° F 57.2 ° F 57% 29.89 pul 6.2 mi SO 16.1 mph - N/A   Nubes dispersas
7:00 PM 69.8 ° F 57.2 ° F 64% 29.92 pul 6.2 mi SSO 13.8 mph - N/A   Nubes dispersas
8:00 PM 68.0 ° F 55.4 ° F 64% 29.95 pul 6.2 mi SSO 10.4 mph - N/A   Muy nublado
9:00 PM 66 ° F 56 ° F 63% 29.94 pul 6 mi SSE 11.5 mph - -   Parcialmente nublado
9:00 PM 66.2 ° F 57.2 ° F 73% 29.95 pul 6.2 mi SSE 11.5 mph - N/A   Muy nublado
10:00 PM 64.4 ° F 55.4 ° F 73% 29.98 pul 6.2 mi SSO 8.1 mph - N/A   Nubes dispersas
11:00 PM 62.6 ° F 55.4 ° F 77% 29.98 pul 6.2 mi Variable 5.8 mph - N/A   Parcialmente nublado